[[{"header":{"parameterUnit":"m.s-1","parameterCategory":2,"la1":30.2991,"la2":30.254,"lo1":-89.0895,"lo2":-89.0444,"dy":0.0017,"dx":0.0017,"nx":28,"ny":28,"refTime":"2024-04-11T09:00:00:Z","depth":"0","parameterNumber":2,"parameterNumberName":"U-component_of_CURRENTS"},"data":[0,0,0,0,0,0,0,0,0,0,0,0,0,0,0,0,0,0,0,0,0,0,0,0,0,0,0,0,0,0,0,0,0,0,0,0,0,0,0,0,0,0,0,0,0,0,0,0,0,0,0,0,0,0,0,0,0,0,0.2137,0.2138,0,0.2184,0.2185,0.2185,0.2226,0.2227,0.2227,0.2228,0.2263,0.2263,0.2263,0,0,0,0,0,0,0,0,0,0,0,0,0,0.2024,0.2026,0.2137,0.2138,0.2139,0.2184,0.2185,0.2185,0.2226,0.2227,0.2227,0.2228,0.2262,0.2263,0.2263,0,0,0,0,0,0,0,0,0,0,0,0,0,0.2071,0.2026,0.2137,0.2165,0.2168,0.2184,0.2185,0.2186,0.2226,0.2227,0.2228,0.2228,0.2262,0.2263,0.2264,0.2251,0,0,0.2265,0.2266,0,0,0,0,0,0,0,0,0.2069,0.2075,0.216,0.2163,0.2167,0.2201,0.2158,0.2207,0.2226,0.2203,0.2228,0.2229,0.2241,0.2243,0.2249,0.2253,0.2254,0.2266,0.2266,0.2266,0.2266,0,0,0,0,0,0,0,0.2065,0.2073,0.2155,0.2161,0.2165,0.2155,0.2163,0.2167,0.2216,0.2205,0.2208,0.2215,0.2242,0.2249,0.225,0.2255,0.2266,0.2266,0.2266,0.2267,0.2299,0.2299,0,0,0,0,0,0,0.2064,0.2071,0.2154,0.2157,0.2119,0.2157,0.2166,0.2188,0.2216,0.2222,0.2214,0.2216,0.2247,0.225,0.2252,0.2332,0.2266,0.2267,0.2267,0.2298,0.2299,0.23,0,0,0,0,0,0,0.2061,0.2071,0.2152,0.2114,0.2124,0.2158,0.2183,0.2189,0.2198,0.2223,0.2229,0.2218,0.2248,0.2251,0.2283,0.233,0.2267,0.2268,0.2298,0.2299,0.2299,0.2433,0,0,0,0,0,0,0.2058,0.2071,0.21,0.2115,0.2126,0.22,0.2183,0.2189,0.2201,0.2205,0.2228,0.2232,0.2249,0.2283,0.2284,0.233,0.2268,0.2297,0.2298,0.2299,0.2428,0.2438,0.2447,0,0,0,0,0,0.2054,0.2091,0.2102,0.2112,0.2162,0.2203,0.2209,0.2233,0.22,0.2235,0.2239,0.2231,0.2288,0.2284,0.2285,0.2333,0.2297,0.2298,0.2299,0.2424,0.2436,0.2447,0,0,0,0,0,0,0.2062,0.2099,0.2111,0.216,0.2196,0.2211,0.2239,0.2226,0.2251,0.2262,0.2245,0.2252,0.2297,0.2279,0.2273,0.2337,0.2287,0.2289,0.2381,0.2393,0.2402,0.2379,0.2269,0,0,0,0,0,0.2075,0.2113,0.2145,0.2188,0.2204,0.2211,0.2227,0.2255,0.2269,0.228,0.228,0.2282,0.2298,0.2318,0.2331,0.2367,0.2366,0.239,0.2399,0.2408,0.2386,0.2455,0.2471,0.2303,0.2303,0.2303,0,0,0.208,0.2114,0.2131,0.2192,0.2213,0.2247,0.2225,0.2277,0.2306,0.2279,0.2311,0.2317,0.231,0.2369,0.2385,0.2366,0.2457,0.2409,0.2418,0.239,0.2458,0.2475,0.249,0.2304,0.2304,0.2304,0,0,0.2105,0.2149,0.2181,0.2217,0.2277,0.2295,0.2303,0.2331,0.2355,0.2397,0.2377,0.2404,0.2422,0.244,0.2443,0.2497,0.2501,0.2499,0.2546,0.2615,0.2631,0.2644,0.2686,0.2702,0.2513,0.2513,0.2513,0,0.2106,0.2164,0.2199,0.2241,0.2269,0.2305,0.234,0.2374,0.2411,0.2438,0.2433,0.2458,0.2456,0.2504,0.2525,0.2523,0.2553,0.2517,0.2633,0.2646,0.2657,0.2697,0.2713,0.2519,0.2519,0.2518,0.2517,0,0.2162,0.22,0.2224,0.2286,0.2326,0.2379,0.2425,0.2481,0.2499,0.2525,0.2586,0.2592,0.2606,0.2614,0.2587,0.2657,0.265,0.2641,0.2617,0.2683,0.2719,0.2734,0.2529,0.2526,0.2524,0.2523,0,0,0.2165,0.224,0.2248,0.2283,0.2361,0.2404,0.2474,0.255,0.2596,0.2653,0.2694,0.2723,0.2725,0.2721,0.2705,0.2747,0.2856,0.2728,0.2729,0.279,0.3008,0.3029,0.3046,0.2893,0.2895,0.2897,0.301,0,0.2191,0.2264,0.2295,0.2364,0.2406,0.2468,0.2515,0.2603,0.2669,0.273,0.2767,0.2796,0.2768,0.278,0.283,0.284,0.2895,0.2824,0.2912,0.2913,0.2944,0.3064,0.3108,0.3215,0.3024,0.3026,0.3028,0,0.2234,0.2285,0.2343,0.2415,0.2435,0.2478,0.2596,0.2648,0.2754,0.2804,0.2872,0.2885,0.294,0.2898,0.3001,0.2968,0.2987,0.2997,0.3003,0.2976,0.2962,0.311,0.3248,0.3277,0.3049,0.3048,0.3046,0,0.2241,0.2315,0.2363,0.2392,0.2478,0.2523,0.2571,0.2678,0.2747,0.2842,0.2919,0.2978,0.3038,0.3074,0.3111,0.3069,0.3225,0.3179,0.3216,0.3216,0.324,0.3238,0.3428,0.3251,0.3251,0.325,0.325,0,0.2258,0.2298,0.2374,0.2406,0.2482,0.2531,0.2622,0.2688,0.2791,0.2874,0.2944,0.3029,0.3092,0.3188,0.3172,0.327,0.33,0.3241,0.3264,0.3287,0.3288,0.3297,0.3255,0.3255,0.3254,0.3253,0.3252,0,0.2242,0.2286,0.2348,0.2441,0.2482,0.253,0.2648,0.2703,0.2821,0.2936,0.2967,0.3124,0.3247,0.3313,0.339,0.3388,0.3382,0.3442,0.3452,0.3474,0.3495,0.3456,0.3345,0.324,0.3496,0.3497,0.3498,0,0.2246,0.2273,0.2371,0.2398,0.2433,0.2525,0.2573,0.2698,0.2765,0.2983,0.3026,0.3212,0.3333,0.3506,0.3539,0.3587,0.3457,0.3624,0.3532,0.3532,0.3507,0.3253,0.3152,0.3623,0.3625,0.3626,0.3628,0,0.2239,0.2255,0.2292,0.2367,0.2416,0.2488,0.2577,0.2653,0.2793,0.293,0.3094,0.3214,0.3446,0.3568,0.3683,0.3683,0.3528,0.3658,0.3685,0.3647,0.3355,0.3256,0.3484,0.3644,0.3642,0.3641,0.364,0.3639,0.2214,0.2231,0.2272,0.2327,0.2373,0.2427,0.2471,0.2582,0.2715,0.2908,0.3063,0.3275,0.3582,0.3767,0.3729,0.3829,0.3609,0.3811,0.3773,0.3518,0.3391,0.3632,0.3796,0.3795,0.3794,0.3794,0.3793,0,0.2199,0.2206,0.224,0.229,0.2295,0.2359,0.2449,0.249,0.2611,0.2867,0.3043,0.3436,0.3669,0.3846,0.4086,0.4028,0.3733,0.3955,0.3667,0.3563,0.3878,0.3866,0.4022,0.4022,0.4022,0.4022,0.4022,0.4022,0.2194,0.2195,0.2214,0.2214,0.2236,0.2246,0.228,0.2362,0.2541,0.2824,0.3088,0.3314,0.3789,0.4223,0.4347,0.4234,0.3907,0.3765,0.3611,0.3976,0.3959,0.3943,0.393,0.4096,0.4096,0.3208,0.3202,0.3198]},{"header":{"parameterUnit":"m.s-1","parameterCategory":2,"la1":30.2991,"la2":30.254,"lo1":-89.0895,"lo2":-89.0444,"dy":0.0017,"dx":0.0017,"nx":28,"ny":28,"refTime":"2024-04-11T09:00:00:Z","depth":"0","parameterNumber":3,"parameterNumberName":"V-component_of_CURRENTS"},"data":[0,0,0,0,0,0,0,0,0,0,0,0,0,0,0,0,0,0,0,0,0,0,0,0,0,0,0,0,0,0,0,0,0,0,0,0,0,0,0,0,0,0,0,0,0,0,0,0,0,0,0,0,0,0,0,0,0,0,-0.021,-0.021,0,-0.0246,-0.0246,-0.0247,-0.0304,-0.0305,-0.0306,-0.0307,-0.0411,-0.0412,-0.0414,0,0,0,0,0,0,0,0,0,0,0,0,0,-0.0167,-0.0168,-0.021,-0.021,-0.0211,-0.0246,-0.0246,-0.0247,-0.0304,-0.0305,-0.0306,-0.0307,-0.041,-0.0412,-0.0414,0,0,0,0,0,0,0,0,0,0,0,0,0,-0.0193,-0.0168,-0.021,-0.0243,-0.0246,-0.0246,-0.0246,-0.0247,-0.0303,-0.0305,-0.0306,-0.0308,-0.0409,-0.0412,-0.0415,-0.0402,0,0,-0.0423,-0.0424,0,0,0,0,0,0,0,0,-0.0192,-0.0195,-0.0238,-0.0241,-0.0244,-0.0272,-0.0269,-0.0302,-0.0303,-0.0282,-0.0307,-0.0309,-0.0369,-0.0375,-0.0378,-0.0407,-0.0411,-0.0423,-0.0425,-0.0426,-0.0427,0,0,0,0,0,0,0,-0.019,-0.0193,-0.0225,-0.0238,-0.0242,-0.0248,-0.0254,-0.0275,-0.0318,-0.0284,-0.0288,-0.0291,-0.0372,-0.0375,-0.0381,-0.0413,-0.0423,-0.0426,-0.0427,-0.0428,-0.0476,-0.0476,0,0,0,0,0,0,-0.0184,-0.0192,-0.0224,-0.0226,-0.0221,-0.0248,-0.0254,-0.0262,-0.0317,-0.0326,-0.029,-0.0294,-0.037,-0.0378,-0.0385,-0.0416,-0.0426,-0.0429,-0.043,-0.0477,-0.0476,-0.0476,0,0,0,0,0,0,-0.0183,-0.0187,-0.0222,-0.0209,-0.0214,-0.0247,-0.0255,-0.0262,-0.0269,-0.032,-0.0331,-0.0291,-0.0371,-0.0381,-0.0414,-0.0419,-0.043,-0.0432,-0.0477,-0.0476,-0.0476,-0.045,0,0,0,0,0,0,-0.0182,-0.0186,-0.0196,-0.0209,-0.0214,-0.0229,-0.0254,-0.0261,-0.0268,-0.0274,-0.0325,-0.0336,-0.0373,-0.041,-0.0417,-0.0423,-0.0435,-0.0477,-0.0477,-0.0476,-0.0452,-0.0449,-0.0447,0,0,0,0,0,-0.018,-0.0162,-0.0197,-0.0201,-0.0225,-0.0229,-0.0232,-0.0261,-0.0267,-0.0272,-0.0307,-0.0335,-0.0411,-0.0412,-0.042,-0.0427,-0.0478,-0.0477,-0.0476,-0.0453,-0.0449,-0.0447,0,0,0,0,0,0,-0.0133,-0.0167,-0.0205,-0.0197,-0.0225,-0.0238,-0.0228,-0.0252,-0.0279,-0.0295,-0.0331,-0.0344,-0.0374,-0.0397,-0.0397,-0.0437,-0.0447,-0.0448,-0.0427,-0.0424,-0.0422,-0.0376,-0.0437,0,0,0,0,0,-0.0134,-0.0139,-0.0177,-0.0173,-0.0177,-0.0206,-0.021,-0.0248,-0.0269,-0.0283,-0.0304,-0.0339,-0.0373,-0.0396,-0.0425,-0.0445,-0.0458,-0.0453,-0.0451,-0.0448,-0.0416,-0.0459,-0.0458,-0.0473,-0.0473,-0.0473,0,0,-0.0113,-0.0132,-0.0137,-0.0167,-0.0177,-0.0172,-0.0211,-0.0226,-0.0239,-0.029,-0.029,-0.0329,-0.0374,-0.0403,-0.0418,-0.0428,-0.0451,-0.0447,-0.0445,-0.0413,-0.0458,-0.0457,-0.0455,-0.0472,-0.0472,-0.0472,0,0,-0.0057,-0.009,-0.0077,-0.0091,-0.013,-0.0154,-0.0155,-0.0181,-0.0212,-0.0239,-0.0274,-0.0311,-0.0345,-0.0383,-0.0408,-0.0402,-0.0432,-0.0413,-0.0372,-0.0416,-0.0415,-0.0414,-0.0429,-0.043,-0.0418,-0.0418,-0.0418,0,-0.0037,-0.0033,-0.0072,-0.0056,-0.0058,-0.0133,-0.0118,-0.0154,-0.0195,-0.0206,-0.024,-0.028,-0.0335,-0.036,-0.0368,-0.0398,-0.0412,-0.0386,-0.0413,-0.0412,-0.0412,-0.0428,-0.0429,-0.0417,-0.0417,-0.0417,-0.0417,0,0.0024,0.0025,0.0049,0.0032,0.0022,0.002,-0.0037,-0.0064,-0.0108,-0.0139,-0.0176,-0.0249,-0.0265,-0.0304,-0.0341,-0.0359,-0.0365,-0.0403,-0.0421,-0.0409,-0.0426,-0.0428,-0.0415,-0.0415,-0.0416,-0.0416,0,0,0.0083,0.0084,0.0092,0.0097,0.0057,0.0062,0.0036,0.0001,0.0008,-0.0069,-0.0052,-0.0144,-0.0172,-0.0198,-0.0258,-0.0306,-0.0341,-0.0347,-0.035,-0.0359,-0.041,-0.042,-0.0423,-0.0389,-0.0389,-0.0389,-0.0424,0,0.0136,0.018,0.0163,0.0205,0.022,0.0158,0.0168,0.0116,0.0059,0.0058,-0.0047,-0.0056,-0.0138,-0.0153,-0.0214,-0.0298,-0.0343,-0.0326,-0.0419,-0.0421,-0.0431,-0.0425,-0.0392,-0.0421,-0.0426,-0.0426,-0.0426,0,0.0199,0.0212,0.0259,0.0284,0.0294,0.031,0.03,0.0291,0.0242,0.02,0.0151,0.0089,0.002,-0.0062,-0.0195,-0.0177,-0.0277,-0.0356,-0.0361,-0.0371,-0.0433,-0.0434,-0.0424,-0.0623,-0.0429,-0.0429,-0.0429,0,0.0249,0.029,0.0326,0.0334,0.0347,0.0362,0.0371,0.034,0.0354,0.0298,0.031,0.0206,0.0173,0.0029,-0.0142,-0.0167,-0.0283,-0.0349,-0.0446,-0.0447,-0.0434,-0.0434,-0.0622,-0.0437,-0.0437,-0.0437,-0.0437,0,0.0313,0.035,0.0359,0.038,0.0454,0.0437,0.0506,0.0485,0.0486,0.0547,0.0409,0.0424,0.0194,0.0093,-0.0084,-0.0252,-0.0245,-0.0415,-0.0456,-0.0424,-0.0423,-0.0607,-0.0735,-0.0438,-0.0438,-0.0438,-0.0437,0,0.0378,0.0376,0.0433,0.046,0.0479,0.0541,0.0613,0.0654,0.0644,0.0712,0.0706,0.0597,0.0463,0.0237,0.001,-0.0156,-0.0458,-0.0405,-0.0337,-0.0369,-0.0652,-0.0779,-0.0971,-0.1108,-0.0511,-0.0511,-0.0512,0,0.0411,0.0439,0.0501,0.0548,0.057,0.065,0.0704,0.0724,0.0783,0.0832,0.0881,0.0772,0.0731,0.0397,0.0057,-0.024,-0.0463,-0.0409,-0.0467,-0.0646,-0.0818,-0.0903,-0.1012,-0.044,-0.044,-0.044,-0.044,0,0.0467,0.0493,0.0539,0.0645,0.0714,0.0819,0.0906,0.0987,0.104,0.1106,0.1188,0.1165,0.0841,0.0559,0.0128,-0.011,-0.0564,-0.0414,-0.0628,-0.079,-0.0865,-0.1022,-0.0428,-0.0438,-0.0438,-0.0438,-0.0438,-0.0438,0.0508,0.057,0.0635,0.0761,0.0852,0.1,0.1124,0.1226,0.1378,0.1547,0.147,0.1539,0.1083,0.0495,0.0096,-0.0538,-0.058,-0.07,-0.0838,-0.0905,-0.1046,-0.043,-0.0478,-0.0478,-0.0478,-0.0479,-0.0479,0,0.0547,0.0629,0.0741,0.0899,0.1047,0.1077,0.127,0.1421,0.1645,0.1797,0.1894,0.1804,0.1185,0.0552,-0.0321,-0.0824,-0.1057,-0.1108,-0.1233,-0.1331,-0.0792,-0.0798,-0.0882,-0.0882,-0.0882,-0.0882,-0.0882,-0.0881,0.0562,0.0688,0.0778,0.1051,0.1172,0.1403,0.1543,0.176,0.1946,0.2236,0.2375,0.2408,0.2043,0.0316,-0.089,-0.1235,-0.1622,-0.1684,-0.1916,-0.1551,-0.1523,-0.1497,-0.1533,-0.177,-0.1771,-0.238,-0.2386,-0.2391]}],[{"header":{"parameterUnit":"m.s-1","parameterCategory":2,"la1":30.2991,"la2":30.254,"lo1":-89.0895,"lo2":-89.0444,"dy":0.0017,"dx":0.0017,"nx":28,"ny":28,"refTime":"2024-04-11T09:00:00:Z","depth":"2","parameterNumber":2,"parameterNumberName":"U-component_of_CURRENTS"},"data":[0,0,0,0,0,0,0,0,0,0,0,0,0,0,0,0,0,0,0,0,0,0,0,0,0,0,0,0,0,0,0,0,0,0,0,0,0,0,0,0,0,0,0,0,0,0,0,0,0,0,0,0,0,0,0,0,0,0,0.2063,0.2063,0,0.2106,0.2107,0.2107,0.2154,0.2154,0.2155,0.2156,0.2201,0.2201,0.2202,0,0,0,0,0,0,0,0,0,0,0,0,0,0.1947,0.1949,0.2063,0.2063,0.2064,0.2106,0.2107,0.2107,0.2153,0.2154,0.2155,0.2156,0.2201,0.2201,0.2202,0,0,0,0,0,0,0,0,0,0,0,0,0,0.1993,0.195,0.2063,0.2093,0.2097,0.2106,0.2107,0.2107,0.2153,0.2154,0.2156,0.2157,0.22,0.2201,0.2202,0.2183,0,0,0.2204,0.2204,0,0,0,0,0,0,0,0,0.1991,0.1997,0.2088,0.2091,0.2095,0.2127,0.2083,0.2133,0.2153,0.213,0.2156,0.2157,0.2176,0.2179,0.2183,0.2185,0.2187,0.2204,0.2204,0.2205,0.2205,0,0,0,0,0,0,0,0.1987,0.1995,0.2079,0.2089,0.2093,0.208,0.2088,0.2092,0.2145,0.2132,0.2136,0.2143,0.2178,0.2182,0.2184,0.2188,0.2204,0.2205,0.2205,0.2205,0.2237,0.2237,0,0,0,0,0,0,0.1988,0.1993,0.2077,0.208,0.2046,0.2081,0.2091,0.2114,0.2145,0.2151,0.2142,0.2145,0.218,0.2183,0.2186,0.2272,0.2205,0.2205,0.2206,0.2236,0.2237,0.2237,0,0,0,0,0,0,0.1985,0.1996,0.2076,0.2037,0.2047,0.2083,0.2109,0.2115,0.2126,0.2153,0.2159,0.2148,0.2181,0.2185,0.2218,0.227,0.2206,0.2206,0.2236,0.2236,0.2237,0.2376,0,0,0,0,0,0,0.1982,0.1995,0.2031,0.2038,0.2049,0.2124,0.2108,0.2115,0.2128,0.2133,0.2159,0.2164,0.2182,0.2218,0.2219,0.227,0.2207,0.2235,0.2236,0.2237,0.2371,0.2381,0.239,0,0,0,0,0,0.1978,0.2014,0.2033,0.2044,0.2092,0.2126,0.2132,0.2158,0.2127,0.2163,0.2168,0.2164,0.2223,0.2219,0.2221,0.2273,0.2235,0.2236,0.2237,0.2366,0.2379,0.239,0,0,0,0,0,0,0.1988,0.2023,0.2043,0.2093,0.2129,0.2136,0.2164,0.2152,0.2177,0.2193,0.2175,0.2183,0.2231,0.2213,0.2208,0.2276,0.2225,0.2226,0.2322,0.2334,0.2344,0.2318,0.2208,0,0,0,0,0,0.2006,0.2043,0.2076,0.212,0.2137,0.2142,0.2158,0.2188,0.22,0.2212,0.2209,0.2213,0.2231,0.2253,0.2266,0.2303,0.23,0.2329,0.2339,0.2348,0.2323,0.2391,0.2406,0.224,0.224,0.224,0,0,0.2012,0.2045,0.2062,0.2125,0.2145,0.2178,0.2156,0.2209,0.224,0.2212,0.2242,0.2248,0.2242,0.2303,0.232,0.2302,0.2396,0.2349,0.2357,0.2327,0.2393,0.241,0.2425,0.2241,0.2241,0.2241,0,0,0.2033,0.2082,0.2114,0.215,0.2214,0.223,0.224,0.2265,0.229,0.2332,0.2312,0.234,0.2356,0.2375,0.238,0.2433,0.2439,0.2438,0.2485,0.2554,0.2569,0.2582,0.2624,0.2639,0.2453,0.2453,0.2454,0,0.2036,0.2096,0.2131,0.2173,0.2201,0.2241,0.2278,0.2312,0.2346,0.2373,0.237,0.239,0.2391,0.244,0.2462,0.2461,0.2489,0.2457,0.2572,0.2584,0.2596,0.2635,0.265,0.246,0.2459,0.2459,0.2458,0,0.209,0.2132,0.2152,0.2217,0.2258,0.2312,0.236,0.242,0.244,0.2462,0.2524,0.253,0.2541,0.2552,0.2525,0.2596,0.2588,0.258,0.2556,0.2622,0.2657,0.2672,0.247,0.2468,0.2466,0.2464,0,0,0.2091,0.2168,0.2176,0.2213,0.2295,0.2336,0.2412,0.249,0.2536,0.2593,0.263,0.2661,0.266,0.2656,0.2642,0.2684,0.2793,0.2666,0.2666,0.2729,0.2944,0.2958,0.2974,0.2831,0.2834,0.2836,0.2948,0,0.2118,0.2192,0.2223,0.2292,0.2336,0.2403,0.2451,0.2543,0.261,0.2666,0.2706,0.273,0.2704,0.2717,0.2766,0.2777,0.2831,0.2762,0.2847,0.2848,0.2873,0.2991,0.2739,0.2819,0.2961,0.2963,0.2965,0,0.2162,0.2215,0.2274,0.2344,0.2365,0.2408,0.2531,0.2584,0.269,0.2742,0.2808,0.2816,0.2871,0.283,0.2933,0.2902,0.292,0.2931,0.2937,0.2899,0.2888,0.2768,0.2839,0.2987,0.2986,0.2984,0.2982,0,0.2172,0.2244,0.2294,0.2322,0.2409,0.2456,0.2505,0.2615,0.2683,0.2779,0.2853,0.291,0.2969,0.3004,0.3039,0.3001,0.3151,0.311,0.314,0.314,0.2908,0.2885,0.3179,0.3179,0.3178,0.3178,0.3178,0,0.2188,0.2229,0.2305,0.234,0.2415,0.2464,0.2554,0.2626,0.2729,0.2806,0.2875,0.2958,0.3022,0.3113,0.3098,0.3191,0.3224,0.3161,0.3185,0.2951,0.2931,0.3041,0.3023,0.3182,0.3181,0.318,0.318,0,0.2171,0.2218,0.2279,0.2374,0.2417,0.2464,0.2582,0.2636,0.2755,0.2866,0.2897,0.305,0.317,0.3233,0.3309,0.3306,0.3343,0.3355,0.3069,0.3058,0.3259,0.3247,0.3399,0.3401,0.3402,0.3404,0.3405,0,0.2173,0.2203,0.2302,0.2332,0.2367,0.246,0.2511,0.2635,0.2701,0.291,0.2951,0.3129,0.3239,0.3407,0.3381,0.3412,0.3427,0.3216,0.3088,0.3282,0.3289,0.3274,0.3261,0.2831,0.2828,0.2824,0.2822,0,0.2168,0.2184,0.2221,0.2302,0.2353,0.2422,0.2514,0.2588,0.2723,0.2848,0.3005,0.3112,0.3285,0.324,0.3324,0.3278,0.3189,0.316,0.3461,0.2833,0.2761,0.2764,0.2766,0.2795,0.2798,0.28,0.2801,0.2802,0.2141,0.2157,0.2203,0.2258,0.2307,0.2361,0.2404,0.2486,0.2604,0.2725,0.29,0.2976,0.3064,0.3064,0.2989,0.2922,0.3125,0.2979,0.2981,0.2988,0.2922,0.2859,0.2896,0.2899,0.2902,0.2904,0.2906,0,0.2109,0.2136,0.2171,0.2222,0.2207,0.2294,0.2382,0.2364,0.2435,0.2571,0.2678,0.2528,0.2575,0.2636,0.2511,0.2552,0.2429,0.2444,0.2256,0.229,0.2318,0.2207,0.1997,0.1993,0.199,0.1987,0,0,0.2104,0.2096,0.2113,0.2104,0.2143,0.212,0.2151,0.2135,0.2193,0.219,0.2226,0.2441,0.2605,0.2255,0.2242,0.2109,0.2158,0.2017,0.2763,0.2579,0.2601,0.2667,0.2544,0,0,0,0,0]},{"header":{"parameterUnit":"m.s-1","parameterCategory":2,"la1":30.2991,"la2":30.254,"lo1":-89.0895,"lo2":-89.0444,"dy":0.0017,"dx":0.0017,"nx":28,"ny":28,"refTime":"2024-04-11T09:00:00:Z","depth":"2","parameterNumber":3,"parameterNumberName":"V-component_of_CURRENTS"},"data":[0,0,0,0,0,0,0,0,0,0,0,0,0,0,0,0,0,0,0,0,0,0,0,0,0,0,0,0,0,0,0,0,0,0,0,0,0,0,0,0,0,0,0,0,0,0,0,0,0,0,0,0,0,0,0,0,0,0,-0.0143,-0.0143,0,-0.0178,-0.0178,-0.0179,-0.0241,-0.0242,-0.0243,-0.0244,-0.0355,-0.0356,-0.0358,0,0,0,0,0,0,0,0,0,0,0,0,0,-0.0099,-0.01,-0.0143,-0.0143,-0.0144,-0.0178,-0.0178,-0.0179,-0.024,-0.0242,-0.0243,-0.0245,-0.0354,-0.0356,-0.0358,0,0,0,0,0,0,0,0,0,0,0,0,0,-0.0125,-0.01,-0.0143,-0.0178,-0.0182,-0.0178,-0.0178,-0.0179,-0.024,-0.0242,-0.0244,-0.0245,-0.0353,-0.0356,-0.0359,-0.0341,0,0,-0.0367,-0.0368,0,0,0,0,0,0,0,0,-0.0123,-0.0126,-0.0173,-0.0176,-0.018,-0.0207,-0.0204,-0.0237,-0.024,-0.0218,-0.0244,-0.0246,-0.0311,-0.0317,-0.0319,-0.0346,-0.0351,-0.0368,-0.0369,-0.037,-0.0371,0,0,0,0,0,0,0,-0.0122,-0.0125,-0.0157,-0.0173,-0.0177,-0.0183,-0.0188,-0.021,-0.0256,-0.022,-0.0225,-0.0228,-0.0314,-0.0316,-0.0322,-0.0353,-0.0367,-0.037,-0.0372,-0.0373,-0.0418,-0.0418,0,0,0,0,0,0,-0.0117,-0.0123,-0.0156,-0.0158,-0.0155,-0.0182,-0.0189,-0.0196,-0.0254,-0.0264,-0.0226,-0.0231,-0.031,-0.0319,-0.0326,-0.0361,-0.037,-0.0373,-0.0375,-0.0419,-0.0418,-0.0418,0,0,0,0,0,0,-0.0116,-0.0119,-0.0154,-0.0141,-0.0146,-0.0181,-0.0189,-0.0196,-0.0206,-0.0258,-0.027,-0.023,-0.0312,-0.0323,-0.0356,-0.0364,-0.0374,-0.0377,-0.0419,-0.0419,-0.0418,-0.0397,0,0,0,0,0,0,-0.0114,-0.0119,-0.0135,-0.0141,-0.0147,-0.0161,-0.0188,-0.0196,-0.0204,-0.0211,-0.0264,-0.0276,-0.0314,-0.0352,-0.0359,-0.0368,-0.0379,-0.042,-0.0419,-0.0418,-0.0398,-0.0396,-0.0393,0,0,0,0,0,-0.0113,-0.0095,-0.0135,-0.014,-0.0163,-0.0161,-0.0164,-0.0195,-0.0203,-0.0208,-0.0245,-0.0275,-0.0352,-0.0354,-0.0362,-0.0372,-0.042,-0.0419,-0.0418,-0.0399,-0.0396,-0.0394,0,0,0,0,0,0,-0.0068,-0.0101,-0.0144,-0.0138,-0.0165,-0.0172,-0.0162,-0.0186,-0.0214,-0.0235,-0.0269,-0.0283,-0.0315,-0.0337,-0.0338,-0.038,-0.039,-0.0391,-0.0373,-0.037,-0.0368,-0.0321,-0.0381,0,0,0,0,0,-0.0073,-0.0078,-0.0116,-0.0113,-0.0117,-0.0144,-0.0148,-0.0189,-0.0207,-0.0221,-0.0242,-0.0278,-0.0312,-0.0337,-0.0365,-0.0386,-0.0399,-0.0396,-0.0394,-0.0392,-0.0358,-0.0401,-0.04,-0.0414,-0.0414,-0.0414,0,0,-0.0054,-0.0071,-0.0077,-0.0107,-0.0117,-0.0112,-0.0149,-0.0165,-0.0179,-0.0229,-0.0229,-0.0268,-0.0313,-0.0344,-0.036,-0.0369,-0.0395,-0.0391,-0.0389,-0.0355,-0.04,-0.0399,-0.0398,-0.0414,-0.0414,-0.0414,0,0,0.0005,-0.0031,-0.0019,-0.0033,-0.0074,-0.0096,-0.0099,-0.0122,-0.0154,-0.018,-0.0216,-0.0253,-0.0287,-0.0325,-0.0349,-0.0343,-0.0376,-0.0356,-0.0316,-0.036,-0.0359,-0.0358,-0.0376,-0.0377,-0.0362,-0.0362,-0.0362,0,0.0023,0.0026,-0.0013,0.0003,0.0,-0.0077,-0.0063,-0.0098,-0.0137,-0.0148,-0.0183,-0.022,-0.0276,-0.0301,-0.031,-0.0339,-0.0355,-0.033,-0.0357,-0.0357,-0.0356,-0.0374,-0.0376,-0.036,-0.0361,-0.0361,-0.0361,0,0.0085,0.0082,0.0109,0.0089,0.0079,0.0077,0.002,-0.001,-0.0055,-0.0083,-0.012,-0.0192,-0.0207,-0.0247,-0.0283,-0.0302,-0.0311,-0.0348,-0.0366,-0.0354,-0.0374,-0.0375,-0.0359,-0.0359,-0.036,-0.036,0,0,0.0144,0.0143,0.0151,0.0154,0.0112,0.0119,0.009,0.0055,0.0061,-0.0016,0.0003,-0.0088,-0.0116,-0.0142,-0.0202,-0.025,-0.0288,-0.0292,-0.0295,-0.0308,-0.036,-0.037,-0.0373,-0.0336,-0.0336,-0.0336,-0.0377,0,0.0195,0.0238,0.0221,0.0262,0.0276,0.0211,0.0222,0.0168,0.0111,0.0112,0.0006,0.0,-0.0082,-0.0099,-0.0159,-0.0244,-0.029,-0.0271,-0.0367,-0.0369,-0.0381,-0.0375,-0.0335,-0.0368,-0.0379,-0.0379,-0.0379,0,0.0255,0.0268,0.0313,0.0339,0.0348,0.0364,0.0351,0.0342,0.0294,0.0251,0.0202,0.0143,0.0074,-0.0008,-0.0142,-0.0124,-0.0225,-0.0305,-0.031,-0.0318,-0.0381,-0.0381,-0.0371,-0.0383,-0.0382,-0.0382,-0.0382,0,0.0302,0.0344,0.0378,0.0386,0.04,0.0412,0.0421,0.0391,0.0404,0.0347,0.0359,0.0257,0.0223,0.0079,-0.0092,-0.0117,-0.0235,-0.03,-0.0398,-0.04,-0.0379,-0.0378,-0.0388,-0.0388,-0.0388,-0.0388,-0.0388,0,0.0365,0.0401,0.041,0.0429,0.0503,0.0487,0.0554,0.0532,0.0533,0.0593,0.0457,0.0471,0.0243,0.0141,-0.0036,-0.0205,-0.0197,-0.0367,-0.0409,-0.0371,-0.0369,-0.0391,-0.0391,-0.039,-0.0389,-0.0389,-0.0389,0,0.0428,0.0426,0.0481,0.0507,0.0526,0.0587,0.066,0.0701,0.0689,0.0754,0.0748,0.0639,0.0504,0.028,0.0052,-0.0112,-0.0294,-0.0361,-0.0286,-0.0319,-0.0442,-0.044,-0.0468,-0.0469,-0.047,-0.047,-0.047,0,0.046,0.0487,0.0548,0.0593,0.0616,0.0694,0.0747,0.0768,0.0826,0.0871,0.0919,0.0808,0.076,0.0427,0.0095,-0.0201,-0.0265,-0.0361,-0.0415,-0.0411,-0.0449,-0.0447,-0.0444,-0.0382,-0.0382,-0.0382,-0.0381,0,0.0514,0.054,0.0586,0.0688,0.0756,0.086,0.0946,0.1026,0.1077,0.1137,0.1213,0.1184,0.0863,0.0561,0.0133,-0.0074,-0.0317,-0.0364,-0.0379,-0.0369,-0.0334,-0.037,-0.037,-0.0379,-0.0379,-0.0379,-0.0379,-0.0379,0.0555,0.0617,0.0679,0.0803,0.0893,0.1037,0.1158,0.1244,0.1388,0.1509,0.1449,0.1419,0.1042,0.0511,0.0126,-0.0286,-0.028,-0.0421,-0.0421,-0.0421,-0.0404,-0.0373,-0.042,-0.042,-0.0421,-0.0421,-0.0421,0,0.0599,0.0672,0.0782,0.0937,0.1082,0.1112,0.13,0.1421,0.1616,0.167,0.1727,0.1419,0.1046,0.0609,0.0005,-0.0352,-0.0388,-0.0463,-0.0434,-0.0433,-0.0433,-0.0417,-0.0437,-0.0438,-0.0439,-0.044,0,0,0.0613,0.0739,0.0827,0.1086,0.1201,0.1415,0.1551,0.1705,0.1804,0.189,0.1859,0.1732,0.1202,0.0765,0.0261,-0.0088,-0.0172,-0.0151,-0.0096,-0.0,0.0004,-0.0366,-0.0334,0,0,0,0,0]}],[{"header":{"parameterUnit":"m.s-1","parameterCategory":2,"la1":30.2991,"la2":30.254,"lo1":-89.0895,"lo2":-89.0444,"dy":0.0017,"dx":0.0017,"nx":28,"ny":28,"refTime":"2024-04-11T09:00:00:Z","depth":"4","parameterNumber":2,"parameterNumberName":"U-component_of_CURRENTS"},"data":[0,0,0,0,0,0,0,0,0,0,0,0,0,0,0,0,0,0,0,0,0,0,0,0,0,0,0,0,0,0,0,0,0,0,0,0,0,0,0,0,0,0,0,0,0,0,0,0,0,0,0,0,0,0,0,0,0,0,0.087,0.0872,0,0.0968,0.0968,0.0969,0.0988,0.0988,0.0988,0.0988,0.1075,0.1077,0.1079,0,0,0,0,0,0,0,0,0,0,0,0,0,0.0757,0.0758,0.087,0.0872,0.0874,0.0968,0.0968,0.0969,0.0988,0.0988,0.0988,0.0988,0.1074,0.1077,0.108,0,0,0,0,0,0,0,0,0,0,0,0,0,0.0819,0.0759,0.087,0.09,0.0904,0.0967,0.0968,0.0969,0.0988,0.0988,0.0988,0.0988,0.1073,0.1077,0.108,0.1105,0,0,0.1091,0.1093,0,0,0,0,0,0,0,0,0.0815,0.0822,0.0894,0.0898,0.0903,0.0972,0.0961,0.1017,0.0988,0.0948,0.0988,0.0988,0.1044,0.105,0.1059,0.1109,0.1113,0.1091,0.1094,0.1095,0.1096,0,0,0,0,0,0,0,0.0811,0.0818,0.0901,0.0896,0.0902,0.0929,0.0936,0.0971,0.099,0.0952,0.0955,0.0978,0.1046,0.1055,0.1061,0.1114,0.1091,0.1095,0.1097,0.1098,0.1282,0.1285,0,0,0,0,0,0,0.0811,0.0814,0.0898,0.0905,0.0866,0.0932,0.0939,0.0944,0.099,0.0999,0.0978,0.0979,0.1049,0.1057,0.1064,0.1138,0.1095,0.1098,0.1101,0.1279,0.1283,0.1286,0,0,0,0,0,0,0.0808,0.0816,0.0894,0.0869,0.0881,0.0934,0.0939,0.0946,0.0973,0.1011,0.1019,0.1,0.1049,0.1059,0.1111,0.114,0.11,0.1103,0.1276,0.128,0.1284,0.1259,0,0,0,0,0,0,0.0803,0.0814,0.0798,0.0868,0.0883,0.0912,0.094,0.0948,0.099,0.0992,0.1033,0.104,0.105,0.1105,0.1114,0.1144,0.1106,0.1273,0.1278,0.1283,0.1257,0.1262,0.1267,0,0,0,0,0,0.0799,0.0818,0.0796,0.0806,0.0865,0.0913,0.0921,0.0954,0.0991,0.0982,0.1036,0.1039,0.1145,0.111,0.112,0.1151,0.127,0.1277,0.1282,0.1255,0.1261,0.1267,0,0,0,0,0,0,0.0778,0.0824,0.0802,0.0832,0.0847,0.0918,0.0958,0.0967,0.1005,0.1012,0.106,0.107,0.1144,0.1155,0.1116,0.1228,0.1215,0.1223,0.1191,0.1197,0.1202,0.1278,0.1109,0,0,0,0,0,0.0757,0.0783,0.0804,0.0832,0.0856,0.0901,0.0927,0.092,0.0976,0.0993,0.1077,0.1137,0.1176,0.1188,0.1248,0.1283,0.1326,0.1321,0.1325,0.1329,0.1403,0.1459,0.1475,0.1306,0.1306,0.1306,0,0,0.0768,0.0796,0.081,0.0828,0.0875,0.0912,0.0918,0.0951,0.097,0.0998,0.1124,0.1173,0.12,0.1257,0.1289,0.1261,0.1393,0.1337,0.1339,0.1413,0.1467,0.1483,0.1497,0.131,0.1309,0.1309,0,0,0.0826,0.0826,0.086,0.0874,0.0899,0.092,0.0932,0.1009,0.1026,0.1098,0.1144,0.1227,0.1312,0.1346,0.1358,0.1433,0.1437,0.1436,0.1491,0.1541,0.1555,0.1568,0.1599,0.1615,0.141,0.141,0.141,0,0.083,0.0861,0.0875,0.0913,0.0948,0.094,0.0975,0.0988,0.1073,0.1126,0.114,0.1349,0.1369,0.1428,0.1457,0.1447,0.1465,0.1443,0.1544,0.1558,0.1572,0.1602,0.162,0.1409,0.1409,0.1409,0.1409,0,0.0885,0.0917,0.097,0.1007,0.1028,0.106,0.1071,0.1101,0.1157,0.1221,0.1346,0.1396,0.153,0.1521,0.1509,0.1611,0.1587,0.1554,0.1516,0.1587,0.1614,0.1633,0.1409,0.1409,0.1409,0.1409,0,0,0.0901,0.0983,0.1003,0.1023,0.1065,0.1089,0.1127,0.1178,0.1242,0.1336,0.1469,0.1555,0.1646,0.1673,0.1665,0.1697,0.1781,0.1667,0.167,0.1679,0.1878,0.1771,0.1781,0.1736,0.1741,0.1744,0.1839,0,0.0942,0.101,0.1049,0.1129,0.1166,0.1173,0.1237,0.1267,0.1329,0.1465,0.1515,0.1664,0.1667,0.1722,0.1768,0.1797,0.184,0.176,0.1832,0.1836,0.1714,0.1804,0.1758,0.1853,0.1858,0.1861,0.1863,0,0.0967,0.1009,0.1079,0.1173,0.1202,0.1254,0.1329,0.1378,0.1504,0.155,0.1691,0.1787,0.1907,0.1875,0.1998,0.1936,0.1954,0.195,0.1952,0.1898,0.1768,0.1785,0.1899,0.1896,0.1893,0.1891,0.1889,0,0.0933,0.1039,0.1091,0.1118,0.1217,0.1262,0.1337,0.1445,0.1517,0.1646,0.1751,0.1889,0.1993,0.2042,0.2113,0.2054,0.2222,0.2119,0.2044,0.2033,0.2106,0.2091,0.2238,0.2238,0.2238,0.2237,0.2237,0,0.0944,0.1,0.1084,0.1113,0.1207,0.1282,0.1409,0.1462,0.1606,0.1737,0.185,0.1953,0.2049,0.2167,0.2168,0.2195,0.228,0.2119,0.2076,0.2086,0.207,0.2116,0.21,0.2241,0.224,0.2239,0.2239,0,0.0914,0.097,0.1042,0.115,0.1198,0.1276,0.1462,0.1524,0.1671,0.1824,0.1891,0.2057,0.2175,0.2265,0.234,0.2274,0.2285,0.2272,0.2318,0.2265,0.2038,0.2021,0.2173,0.2171,0.2168,0.2167,0.2165,0,0.0906,0.0927,0.1054,0.1099,0.1169,0.1293,0.1359,0.152,0.1597,0.1869,0.1931,0.2144,0.2231,0.2272,0.2329,0.234,0.2307,0.229,0.2153,0.2102,0.2045,0.203,0.2016,0.2162,0.2162,0.2161,0.216,0,0.0879,0.0928,0.0974,0.1073,0.1153,0.1253,0.1386,0.1448,0.1635,0.1786,0.1934,0.2032,0.2166,0.2203,0.2261,0.2249,0.2277,0.2267,0.2268,0.2139,0.209,0.2032,0.2021,0.2153,0.2154,0.2155,0.2155,0,0.0857,0.0877,0.0939,0.1039,0.1122,0.1201,0.1284,0.1385,0.1509,0.1787,0.1823,0.2015,0.2151,0.2162,0.2205,0.2206,0.2136,0.2024,0.2036,0.2045,0.1959,0.1875,0.1887,0,0,0,0,0,0.0816,0.0841,0.09,0.1,0.1074,0.1151,0.128,0.1352,0.1541,0.1594,0.1717,0.1826,0.1922,0.2008,0.1978,0.2129,0.2135,0.2083,0.2009,0.2114,0.2122,0.2031,0,0,0,0,0,0,0.0788,0.0834,0.0874,0.0951,0.1002,0.1092,0.1172,0.1289,0.1339,0.1524,0.1581,0.1714,0.1822,0.193,0.1947,0.197,0.1883,0.2187,0.2182,0.2109,0.2116,0.2123,0.2033,0,0,0,0,0]},{"header":{"parameterUnit":"m.s-1","parameterCategory":2,"la1":30.2991,"la2":30.254,"lo1":-89.0895,"lo2":-89.0444,"dy":0.0017,"dx":0.0017,"nx":28,"ny":28,"refTime":"2024-04-11T09:00:00:Z","depth":"4","parameterNumber":3,"parameterNumberName":"V-component_of_CURRENTS"},"data":[0,0,0,0,0,0,0,0,0,0,0,0,0,0,0,0,0,0,0,0,0,0,0,0,0,0,0,0,0,0,0,0,0,0,0,0,0,0,0,0,0,0,0,0,0,0,0,0,0,0,0,0,0,0,0,0,0,0,0.0509,0.0508,0,0.0429,0.0428,0.0427,0.0419,0.042,0.0421,0.0423,0.0406,0.0405,0.0403,0,0,0,0,0,0,0,0,0,0,0,0,0,0.0498,0.0499,0.0509,0.0508,0.0508,0.043,0.0428,0.0427,0.0419,0.042,0.0422,0.0423,0.0407,0.0405,0.0403,0,0,0,0,0,0,0,0,0,0,0,0,0,0.0466,0.0499,0.0509,0.0497,0.0496,0.043,0.0428,0.0426,0.0419,0.042,0.0422,0.0424,0.0407,0.0405,0.0403,0.0353,0,0,0.0396,0.0395,0,0,0,0,0,0,0,0,0.0468,0.0466,0.05,0.0498,0.0496,0.0439,0.0418,0.0406,0.0418,0.0444,0.0423,0.0425,0.0424,0.0421,0.0395,0.0352,0.0352,0.0396,0.0394,0.0393,0.0393,0,0,0,0,0,0,0,0.047,0.0468,0.0473,0.0499,0.0497,0.0443,0.0441,0.0415,0.0423,0.0442,0.0442,0.0439,0.0424,0.0398,0.0395,0.0351,0.0396,0.0394,0.0392,0.0391,0.0316,0.0315,0,0,0,0,0,0,0.0494,0.0471,0.0476,0.0472,0.0491,0.0443,0.044,0.0453,0.0422,0.042,0.0437,0.0439,0.0401,0.0398,0.0395,0.0438,0.0393,0.0391,0.039,0.0317,0.0316,0.0315,0,0,0,0,0,0,0.0495,0.0496,0.0479,0.0471,0.0466,0.0442,0.0455,0.045,0.045,0.0419,0.0417,0.0446,0.0402,0.0398,0.0402,0.0434,0.039,0.0388,0.0317,0.0316,0.0315,0.0459,0,0,0,0,0,0,0.0495,0.0497,0.0528,0.0474,0.0468,0.0481,0.0454,0.0448,0.0445,0.0447,0.0425,0.0423,0.0403,0.0406,0.04,0.043,0.0386,0.0318,0.0317,0.0316,0.0455,0.0463,0.047,0,0,0,0,0,0.0495,0.0496,0.053,0.0531,0.0507,0.0483,0.0475,0.0459,0.0445,0.046,0.0439,0.0425,0.0393,0.0404,0.0397,0.0428,0.0319,0.0317,0.0316,0.0452,0.0462,0.047,0,0,0,0,0,0,0.0502,0.0494,0.053,0.0534,0.0544,0.0484,0.0474,0.0469,0.0457,0.0469,0.0427,0.0425,0.0426,0.0396,0.0409,0.0393,0.0349,0.0346,0.0454,0.0463,0.047,0.0402,0.0384,0,0,0,0,0,0.0525,0.0533,0.0534,0.0548,0.0544,0.052,0.051,0.0522,0.0495,0.0491,0.0458,0.0427,0.0404,0.0416,0.0375,0.0387,0.0311,0.0391,0.0399,0.0406,0.034,0.0271,0.0267,0.0311,0.0311,0.0311,0,0,0.0541,0.0531,0.0545,0.0553,0.0539,0.0541,0.0517,0.0522,0.0539,0.0492,0.0476,0.0444,0.0403,0.0408,0.0407,0.0404,0.0365,0.0405,0.0412,0.0339,0.027,0.0265,0.0262,0.031,0.031,0.031,0,0,0.054,0.0559,0.0567,0.0571,0.0585,0.0572,0.0585,0.0555,0.0562,0.056,0.0521,0.0493,0.0463,0.0434,0.042,0.0432,0.0388,0.0448,0.0464,0.0403,0.0399,0.0394,0.0351,0.0341,0.0479,0.0479,0.0479,0,0.0558,0.058,0.0569,0.0569,0.0572,0.0588,0.0604,0.0605,0.0589,0.0579,0.0576,0.0472,0.0453,0.0437,0.0446,0.0448,0.0415,0.0456,0.0415,0.0408,0.0401,0.0357,0.0344,0.0486,0.0485,0.0484,0.0484,0,0.0575,0.0595,0.0581,0.0601,0.0605,0.0621,0.0633,0.0653,0.0647,0.0623,0.0591,0.0543,0.0472,0.0491,0.0476,0.0433,0.043,0.0423,0.0404,0.0406,0.036,0.0344,0.0496,0.0493,0.0491,0.0489,0,0,0.0588,0.0598,0.0598,0.0623,0.0633,0.0637,0.0667,0.0679,0.0685,0.0658,0.062,0.057,0.0514,0.0484,0.0476,0.0433,0.0387,0.0421,0.0415,0.0396,0.0274,0.0277,0.026,0.0406,0.0402,0.0399,0.0286,0,0.0612,0.0635,0.0624,0.0656,0.0671,0.0686,0.0701,0.0721,0.071,0.0677,0.0625,0.0573,0.0533,0.0523,0.0464,0.0396,0.0341,0.0418,0.0252,0.0245,0.0264,0.0238,0.0389,0.0273,0.0269,0.0266,0.0264,0,0.063,0.0648,0.0682,0.0703,0.0706,0.0725,0.0753,0.0769,0.0739,0.0729,0.0656,0.0593,0.0511,0.048,0.0322,0.0389,0.0304,0.025,0.0246,0.0161,0.0215,0.0249,0.0234,0.0236,0.0239,0.0241,0.0243,0,0.0654,0.0677,0.0711,0.0719,0.0745,0.0768,0.0784,0.0778,0.0795,0.0743,0.073,0.0607,0.056,0.0422,0.0288,0.0312,0.0112,0.014,0.0051,0.0053,0.0025,0.003,-0.0026,-0.0026,-0.0026,-0.0025,-0.0025,0,0.0661,0.069,0.0733,0.0752,0.0807,0.0797,0.0831,0.0845,0.0833,0.0832,0.074,0.0713,0.0539,0.0415,0.0283,0.0113,0.01,0.0001,0.0001,0.0097,0.0111,0.0017,0.0024,-0.003,-0.0029,-0.0028,-0.0027,0,0.0665,0.0692,0.0736,0.0787,0.0816,0.0847,0.0895,0.0912,0.0903,0.0903,0.0888,0.0783,0.0629,0.0449,0.0235,0.0124,-0.0042,-0.0104,0.0008,0.0025,-0.0057,-0.0042,-0.0219,-0.022,-0.0221,-0.0222,-0.0223,0,0.0663,0.0688,0.0775,0.0819,0.0844,0.09,0.0945,0.096,0.0981,0.0949,0.0951,0.0809,0.0715,0.0419,0.0225,-0.0044,-0.0081,-0.017,-0.0149,-0.0107,-0.0088,-0.0071,-0.0055,-0.0225,-0.0225,-0.0226,-0.0226,0,0.0664,0.07,0.0752,0.0853,0.0912,0.0977,0.1041,0.1066,0.1067,0.1058,0.0997,0.0833,0.0656,0.0425,0.0209,0.0019,-0.0112,-0.0182,-0.0181,-0.0162,-0.0116,-0.0092,-0.0075,-0.023,-0.0229,-0.0229,-0.0229,0,0.0673,0.0718,0.0799,0.0877,0.096,0.1036,0.1063,0.1091,0.1107,0.1075,0.105,0.0857,0.0745,0.0455,0.026,0.0067,0.0021,-0.0038,-0.0045,-0.0043,0.004,0.0126,0.0049,0,0,0,0,0,0.0681,0.0744,0.0822,0.0915,0.0991,0.1052,0.1124,0.1138,0.1142,0.1109,0.1085,0.092,0.0624,0.0498,0.0304,0.0231,-0.0018,-0.0004,-0.009,-0.0251,-0.0247,-0.0181,0,0,0,0,0,0,0.0697,0.078,0.0826,0.0927,0.0996,0.1088,0.1139,0.1146,0.1131,0.1107,0.0957,0.0874,0.0591,0.074,0.0303,0.0243,0.0161,-0.0142,-0.0146,-0.0254,-0.025,-0.0246,-0.0177,0,0,0,0,0]}]]